Regional Weather Roundup
Issued by NWS Sioux Falls, SD

Home | Current Version | Previous Version | Graphics & Text | Print | Product List | Glossary On
Versions: 1 2 3 4 5 6 7 8 9 10 11 12 13 14 15 16 17 18 19 20 21 22 23 24 25 26 27 28 29 30 31 32 33 34 35 36 37 38 39 40 41 42 43 44 45 46 47 48 49 50
000
ASUS43 KFSD 281310
RWRFSD

WEATHER ROUNDUP FOR SE SOUTH DAKOTA/SW MINNESOTA/NW IOWA
NATIONAL WEATHER SERVICE SIOUX FALLS SD
700 AM CST SUN DEC 28 2014

NOTE: "FAIR" INDICATES FEW OR NO CLOUDS BELOW 12,000 FEET WITH NO
SIGNIFICANT WEATHER AND OR OBSTRUCTIONS TO VISIBILITY.


SDZ038>040-050-052>070-281400-
SOUTHEAST SOUTH DAKOTA

CITY           SKY/WX    TMP DP  RH WIND       PRES   REMARKS
CHAMBERLAIN    PTCLDY     5   2  90 W3        30.06R
HURON          PTCLDY    -1  -4  87 CALM      30.09S
MADISON        FAIR       1   1 100 NW3       30.06R
MITCHELL       PTCLDY     5   3  91 W3        30.10S
SIOUX FALLS    PTCLDY    -1  -5  82 CALM      30.09S
WINNER         FAIR      10   3  73 S5        30.03S WCI   2
YANKTON          N/A      7   1  78 NW3       30.11R VSB 3/4
$$

MNZ071-072-080-081-089-090-097-098-281400-
SOUTHWEST MINNESOTA

CITY           SKY/WX    TMP DP  RH WIND       PRES   REMARKS
FAIRMONT       CLEAR     10   5  79 W9        30.08S WCI  -2
JACKSON        CLEAR     10   7  85 W7        30.08R WCI   0
LUVERNE        PTCLDY     1  -4  78 CALM      30.10R
MARSHALL       FAIR      10   5  79 W7        30.09R WCI   0
MONTEVIDEO     CLOUDY    12  10  92 NW6       30.11R WCI   3
PIPESTONE      PTCLDY    -2  -6  84 CALM      30.06R FOG
REDWOOD FALLS  CLEAR     11   8  88 W6        30.10R WCI   1
TRACY          CLEAR     12  10  89 W5        30.09R WCI   4
WINDOM           N/A      5   1  85 CALM      30.08S
WORTHINGTON    CLEAR      7 N/A N/A W6        30.07S WCI  -3
$$

IAZ001>003-012>014-020>022-031-032-NEZ013-014-SDZ071-281400-
NORTHWEST IOWA

CITY           SKY/WX    TMP DP  RH WIND       PRES   REMARKS
CHEROKEE       CLEAR      4   2  93 CALM      30.11R
DENISON        CLEAR     12  10  92 CALM      30.10R
ESTHERVILLE    CLEAR      7   4  87 SW8       30.08S WCI  -6
LE MARS        PTCLDY     1   0  92 CALM      30.11S
ORANGE CITY    PTCLDY    10   7  85 CALM      30.07F
SHELDON        FAIR       1  -2  85 CALM      30.08S
SIOUX CITY     CLEAR      4   0  83 E3        30.12S
SPENCER        CLEAR      6   1  80 CALM      30.09S
STORM LAKE     CLEAR      9   7  92 CALM      30.09S
$$

ABBREVIATIONS USED IN REMARKS
   TC - TEMPERATURE IN CELSIUS
  WCI - WIND CHILL INDEX
   HX - HEAT INDEX
  VSB - VISIBILITY




USA.gov is the U.S. government's official web portal to all federal, state and local government web resources and services.